Terminal Aerodrome Forecast
Issued by NWS Denver/Boulder, CO

Home | Current Version | Previous Version | Text Only | Print | Product List | Glossary On
Versions: 1 2 3 4 5 6 7 8 9 10 11 12 13 14 15 16 17 18 19 20 21 22 23 24 25 26 27 28 29 30 31 32 33 34 35 36 37 38 39 40 41 42 43 44 45 46 47 48 49 50
000
FTUS45 KBOU 010059 AAA
TAFDEN
TAF AMD
KDEN 010059Z 0101/0206 06007KT P6SM VCSH SCT080 BKN120 BKN200
     FM010200 11008KT P6SM SCT080 SCT120 BKN200
     FM010400 15007KT P6SM FEW120 SCT200
     FM010600 20010KT P6SM FEW200
     FM011400 VRB05KT P6SM FEW090 SCT120
     FM011900 08006KT P6SM FEW090 SCT120=

USA.gov is the U.S. government's official web portal to all federal, state and local government web resources and services.